Home   Weather   Kobe   Past weeks

Flag for Japan Past Weather in Kobe, Japan — Yesterday and Last 2 Weeks

Now
75 °F

Passing clouds.


Feels Like: 74 °F
Forecast: 71 / 86 °F
Wind: 3 mph from South

Location: Kansai International Airport

Current Time: Sep 27, 2016 at 4:17:09 AM

Latest Report: Sep 27, 2016 at 3:30 AM


Visibility: N/A

Pressure: 30.04 "Hg

Humidity: 94%

Dew Point: 73 °F

Location of KobeLocation

Past Weather in Kobe — Graph

°F

Kobe Temperature Yesterday

Maximum temperature yesterday: 84 °F (at 2:30 PM)
Minimum temperature yesterday: 73 °F (at 12:00 AM)
Average temperature yesterday: 78 °F

High & Low Weather Summary for the Past Weeks

 TemperatureHumidityPressure
High90 °F (Sep 17, 12:00 PM)100% (Sep 13, 6:30 AM)30.09 "Hg (Sep 13, 6:30 AM)
Low70 °F (Sep 20, 7:00 AM)55% (Sep 12, 1:00 PM)29.33 "Hg (Sep 20, 1:30 PM)
Average77 °F82%29.92 "Hg
* Reported Sep 12 3:00 AM — Sep 27 3:00 AM, Kobe, Weather by CustomWeather, © 2016

Note: Actual official high and low records may vary slightly from our data, if they occured in-between our weather recording intervals... More about our weather records

Advertising

Kobe Weather History for the Previous 24 Hours

Scroll right to see more
 ConditionsComfort  
Time TempWeatherWind HumidityBarometerVisibility
3:00 AM
Tue, Sep 27
75 °FPassing clouds.6 mph94%30.04 "HgN/A
2:30 AM77 °FPassing clouds.5 mph94%30.04 "HgN/A
2:00 AM75 °FPassing clouds.5 mph94%30.04 "HgN/A
1:30 AM75 °FPassing clouds.5 mph94%30.04 "HgN/A
1:00 AM77 °FPassing clouds.5 mph89%30.07 "HgN/A
12:30 AM79 °FPassing clouds.2 mph84%30.07 "HgN/A
11:30 PM
Mon, Sep 26
79 °FPassing clouds.2 mph89%30.07 "HgN/A
11:00 PM79 °FPassing clouds.1 mph89%30.07 "HgN/A
10:30 PM79 °FPassing clouds.5 mph89%30.07 "HgN/A
10:00 PM79 °FPassing clouds.5 mph89%30.07 "HgN/A
9:30 PM79 °FPartly cloudy.1 mph89%30.07 "HgN/A
9:00 PM79 °FPartly cloudy.1 mph89%30.07 "HgN/A
8:30 PM81 °FPartly cloudy.3 mph79%30.07 "HgN/A
8:00 PM81 °FPartly cloudy.5 mph74%30.07 "HgN/A
7:30 PM81 °FPassing clouds.5 mph79%30.04 "HgN/A
7:00 PM81 °FPassing clouds.3 mph74%30.04 "HgN/A
6:30 PM81 °FPassing clouds.2 mph79%30.04 "HgN/A
6:00 PM81 °FPassing clouds.5 mph84%30.04 "HgN/A
5:30 PM81 °FPassing clouds.5 mph84%30.01 "HgN/A
5:00 PM82 °FPassing clouds.5 mph74%30.01 "HgN/A
4:30 PM84 °FScattered clouds.7 mph66%30.01 "HgN/A
4:00 PM84 °FScattered clouds.7 mph66%30.01 "HgN/A
3:30 PM84 °FScattered clouds.7 mph66%30.01 "HgN/A
3:00 PM84 °FPartly sunny.7 mph70%30.01 "HgN/A
2:30 PM84 °FBroken clouds.9 mph70%30.01 "HgN/A
2:00 PM82 °FBroken clouds.8 mph74%30.04 "HgN/A
1:30 PM82 °FBroken clouds.8 mph74%30.04 "HgN/A
1:00 PM82 °FPartly sunny.9 mph74%30.04 "HgN/A
12:30 PM81 °FBroken clouds.9 mph79%30.04 "HgN/A
12:00 PM79 °FPartly sunny.12 mph84%30.07 "HgN/A
11:30 AM79 °FBroken clouds.13 mph84%30.07 "HgN/A
11:00 AM79 °FPartly sunny.12 mph84%30.07 "HgN/A
10:30 AM79 °FPartly sunny.8 mph84%30.09 "HgN/A
10:00 AM79 °FBroken clouds.6 mph84%30.09 "HgN/A
9:30 AM77 °FBroken clouds.5 mph89%30.09 "HgN/A
9:00 AM77 °FPartly sunny.5 mph89%30.09 "HgN/A
8:30 AM77 °FBroken clouds.8 mph89%30.07 "HgN/A
8:00 AM75 °FSprinkles. Broken clouds.7 mph94%30.07 "HgN/A
7:30 AM75 °FBroken clouds.9 mph89%30.07 "HgN/A
7:00 AM75 °FBroken clouds.8 mph89%30.07 "HgN/A
6:30 AM75 °FPartly sunny.10 mph89%30.04 "HgN/A
6:00 AM73 °FBroken clouds.12 mph100%30.04 "HgN/A
5:30 AM73 °FSprinkles. Passing clouds.10 mph100%30.04 "HgN/A
5:00 AM73 °FSprinkles. Passing clouds.9 mph100%30.04 "HgN/A
4:30 AM73 °FRain showers. Passing clouds.8 mph100%30.04 "HgN/A
4:00 AM75 °FRain showers. Partly cloudy.8 mph94%30.04 "HgN/A
Weather by CustomWeather, © 2016

See weather overviewHow to use our weather pages